When you browse on this site, cookies collect data to enhance your experience and personalize the content and advertising you see.
Visit our Privacy Policy to learn more. By continuing to use the site, you agree to this use of cookies and data.

Hourly Weather Pomorie

Today, 8 July, Wednesday

Time Temperature Precipitation Wind Pressure Humidity
00:00 +19°C° 0.3 mm 6 mps 758 mmHg 85%
01:00 +17°C° 0.3 mm 7 mps 758 mmHg 86%
02:00 +17°C° 0 mm 7 mps 758 mmHg 90%
03:00 +17°C° 0.1 mm 7 mps 759 mmHg 89%
04:00 +16°C° 0.1 mm 6 mps 759 mmHg 87%
05:00 +16°C° 0.1 mm 6 mps 759 mmHg 86%
06:00 +17°C° 0 mm 6 mps 760 mmHg 80%
07:00 +19°C° 0 mm 6 mps 760 mmHg 74%
08:00 +20°C° 0 mm 6 mps 761 mmHg 67%
09:00 +21°C° 0 mm 6 mps 761 mmHg 62%
10:00 +23°C° 0 mm 6 mps 762 mmHg 57%
11:00 +24°C° 0 mm 6 mps 762 mmHg 52%
12:00 +26°C° 0 mm 5 mps 762 mmHg 50%
13:00 +27°C° 0 mm 5 mps 762 mmHg 49%
14:00 +27°C° 0 mm 5 mps 762 mmHg 47%
15:00 +27°C° 0 mm 5 mps 762 mmHg 48%
16:00 +27°C° 0 mm 4 mps 762 mmHg 49%
17:00 +27°C° 0 mm 4 mps 762 mmHg 50%
18:00 +25°C° 0 mm 4 mps 762 mmHg 55%
19:00 +22°C° 0 mm 3 mps 762 mmHg 60%
20:00 +21°C° 0 mm 3 mps 762 mmHg 65%
21:00 +20°C° 0 mm 2 mps 763 mmHg 66%
22:00 +20°C° 0 mm 2 mps 763 mmHg 67%
23:00 +19°C° 0 mm 2 mps 763 mmHg 68%

Tomorrow, 9 July, Thursday

Time Temperature Precipitation Wind Pressure Humidity
00:00 +19°C° 0 mm 2 mps 763 mmHg 68%
01:00 +19°C° 0 mm 2 mps 763 mmHg 68%
02:00 +18°C° 0 mm 2 mps 763 mmHg 69%
03:00 +18°C° 0 mm 2 mps 763 mmHg 71%
04:00 +18°C° 0 mm 2 mps 763 mmHg 73%
05:00 +17°C° 0 mm 2 mps 763 mmHg 75%
06:00 +19°C° 0 mm 2 mps 763 mmHg 69%
07:00 +23°C° 0 mm 2 mps 763 mmHg 63%
08:00 +25°C° 0 mm 2 mps 763 mmHg 56%
09:00 +26°C° 0 mm 3 mps 764 mmHg 53%
10:00 +27°C° 0 mm 4 mps 764 mmHg 50%
11:00 +28°C° 0 mm 4 mps 764 mmHg 46%
12:00 +28°C° 0 mm 5 mps 764 mmHg 46%
13:00 +29°C° 0 mm 5 mps 763 mmHg 45%
14:00 +29°C° 0 mm 5 mps 763 mmHg 44%
15:00 +28°C° 0 mm 5 mps 763 mmHg 47%
16:00 +28°C° 0 mm 5 mps 763 mmHg 49%
17:00 +27°C° 0 mm 5 mps 763 mmHg 51%
18:00 +26°C° 0 mm 4 mps 763 mmHg 59%
19:00 +23°C° 0 mm 4 mps 763 mmHg 67%
20:00 +21°C° 0 mm 3 mps 763 mmHg 74%
21:00 +21°C° 0 mm 3 mps 763 mmHg 76%
22:00 +20°C° 0 mm 2 mps 763 mmHg 78%
23:00 +20°C° 0 mm 2 mps 763 mmHg 80%

Day after tomorrow, 10 July, Friday

Time Temperature Precipitation Wind Pressure Humidity
00:00 +20°C° 0 mm 2 mps 763 mmHg 80%
01:00 +19°C° 0 mm 2 mps 763 mmHg 81%
02:00 +19°C° 0 mm 2 mps 763 mmHg 81%
03:00 +19°C° 0 mm 2 mps 763 mmHg 82%
04:00 +19°C° 0 mm 2 mps 763 mmHg 83%
05:00 +19°C° 0 mm 3 mps 763 mmHg 83%
06:00 +21°C° 0 mm 4 mps 763 mmHg 77%
07:00 +23°C° 0 mm 4 mps 763 mmHg 70%
08:00 +26°C° 0 mm 5 mps 763 mmHg 63%
09:00 +27°C° 0 mm 6 mps 763 mmHg 59%
10:00 +28°C° 0 mm 6 mps 763 mmHg 55%
11:00 +29°C° 0 mm 6 mps 763 mmHg 51%
12:00 +29°C° 0 mm 6 mps 763 mmHg 51%
13:00 +29°C° 0 mm 6 mps 763 mmHg 51%
14:00 +29°C° 0 mm 6 mps 763 mmHg 51%
15:00 +29°C° 0 mm 6 mps 762 mmHg 52%
16:00 +29°C° 0 mm 6 mps 762 mmHg 53%
17:00 +28°C° 0 mm 7 mps 762 mmHg 55%
18:00 +27°C° 0 mm 6 mps 762 mmHg 61%
19:00 +25°C° 0 mm 5 mps 762 mmHg 68%
20:00 +23°C° 0 mm 5 mps 762 mmHg 75%
21:00 +22°C° 0 mm 5 mps 762 mmHg 77%
22:00 +22°C° 0 mm 5 mps 763 mmHg 79%
23:00 +22°C° 0 mm 5 mps 763 mmHg 82%

11 July, Saturday

Time Temperature Precipitation Wind Pressure Humidity
00:00 +21°C° 0 mm 5 mps 762 mmHg 82%
01:00 +21°C° 0 mm 4 mps 762 mmHg 83%
02:00 +21°C° 0 mm 4 mps 762 mmHg 84%
03:00 +21°C° 0 mm 4 mps 762 mmHg 85%
04:00 +21°C° 0 mm 4 mps 761 mmHg 86%
05:00 +21°C° 0 mm 4 mps 761 mmHg 87%
06:00 +22°C° 0.1 mm 4 mps 761 mmHg 81%
07:00 +25°C° 0.1 mm 5 mps 761 mmHg 75%
08:00 +27°C° 0.1 mm 5 mps 761 mmHg 69%
09:00 +28°C° 0.1 mm 5 mps 761 mmHg 65%
10:00 +29°C° 0.1 mm 6 mps 761 mmHg 60%
11:00 +30°C° 0.1 mm 6 mps 761 mmHg 56%
12:00 +30°C° 0 mm 6 mps 761 mmHg 55%
13:00 +30°C° 0 mm 6 mps 761 mmHg 53%
14:00 +30°C° 0 mm 6 mps 760 mmHg 52%
15:00 +30°C° 0 mm 6 mps 760 mmHg 54%
16:00 +29°C° 0 mm 6 mps 760 mmHg 56%
17:00 +29°C° 0 mm 6 mps 760 mmHg 58%
18:00 +27°C° 0 mm 5 mps 760 mmHg 66%
19:00 +26°C° 0 mm 4 mps 760 mmHg 73%
20:00 +23°C° 0 mm 4 mps 760 mmHg 80%
21:00 +22°C° 0 mm 3 mps 760 mmHg 83%
22:00 +22°C° 0 mm 3 mps 760 mmHg 85%
23:00 +21°C° 0 mm 3 mps 760 mmHg 88%

12 July, Sunday

Time Temperature Precipitation Wind Pressure Humidity
00:00 +21°C° 0 mm 3 mps 760 mmHg 89%
01:00 +21°C° 0 mm 2 mps 759 mmHg 89%
02:00 +20°C° 0 mm 2 mps 759 mmHg 90%
03:00 +20°C° 0 mm 2 mps 759 mmHg 91%
04:00 +20°C° 0 mm 2 mps 759 mmHg 91%
05:00 +19°C° 0 mm 2 mps 759 mmHg 92%
06:00 +21°C° 0 mm 2 mps 759 mmHg 84%
07:00 +24°C° 0 mm 2 mps 759 mmHg 76%
08:00 +26°C° 0 mm 2 mps 759 mmHg 68%
09:00 +28°C° 0 mm 3 mps 759 mmHg 60%
10:00 +29°C° 0 mm 3 mps 759 mmHg 51%
11:00 +31°C° 0 mm 3 mps 760 mmHg 43%
12:00 +31°C° 0 mm 3 mps 759 mmHg 41%
13:00 +33°C° 0 mm 3 mps 759 mmHg 39%
14:00 +34°C° 0 mm 3 mps 759 mmHg 37%
15:00 +33°C° 0 mm 3 mps 759 mmHg 40%
16:00 +33°C° 0 mm 3 mps 759 mmHg 42%
17:00 +31°C° 0 mm 2 mps 759 mmHg 45%
18:00 +29°C° 0 mm 2 mps 759 mmHg 52%
19:00 +27°C° 0 mm 1 mps 759 mmHg 60%
20:00 +25°C° 0 mm 1 mps 759 mmHg 68%
21:00 +24°C° 0 mm 2 mps 759 mmHg 70%
22:00 +24°C° 0 mm 3 mps 760 mmHg 71%
23:00 +23°C° 0 mm 4 mps 760 mmHg 73%

13 July, Monday

Time Temperature Precipitation Wind Pressure Humidity
00:00 +22°C° 0 mm 5 mps 760 mmHg 77%
01:00 +21°C° 0 mm 6 mps 760 mmHg 81%
02:00 +20°C° 0 mm 6 mps 760 mmHg 85%
03:00 +19°C° 0 mm 6 mps 760 mmHg 84%
04:00 +19°C° 0 mm 6 mps 760 mmHg 83%
05:00 +17°C° 0 mm 6 mps 761 mmHg 82%
06:00 +19°C° 0 mm 6 mps 761 mmHg 78%
07:00 +19°C° 0 mm 6 mps 761 mmHg 74%
08:00 +20°C° 0 mm 6 mps 761 mmHg 71%
09:00 +21°C° 0 mm 6 mps 762 mmHg 65%
10:00 +22°C° 0 mm 7 mps 762 mmHg 59%
11:00 +24°C° 0 mm 7 mps 762 mmHg 54%
12:00 +24°C° 0 mm 7 mps 762 mmHg 51%
13:00 +26°C° 0 mm 7 mps 762 mmHg 49%
14:00 +27°C° 0 mm 7 mps 762 mmHg 46%
15:00 +27°C° 0 mm 6 mps 762 mmHg 45%
16:00 +27°C° 0 mm 6 mps 761 mmHg 45%
17:00 +27°C° 0 mm 6 mps 761 mmHg 44%
18:00 +25°C° 0 mm 5 mps 761 mmHg 49%
19:00 +23°C° 0 mm 5 mps 762 mmHg 54%
20:00 +21°C° 0 mm 4 mps 762 mmHg 59%
21:00 +21°C° 0 mm 4 mps 762 mmHg 63%
22:00 +20°C° 0 mm 5 mps 762 mmHg 66%
23:00 +19°C° 0 mm 5 mps 762 mmHg 70%
Show more